Emporia, KS

10:28 PM CST on February 21, 2018 (GMT -0600)
Emporia Municipal

Weather History for KEMP - January, 2013

Change the Weather History Date:

Tuesday, January 22, 2013

  Actual Average Record
Temperature  
Mean Temperature 24 °F 31 °F  
Max Temperature 36 °F 42 °F 66 °F (2002)
Min Temperature 12 °F 21 °F 3 °F (2003)
Degree Days  
Heating Degree Days 41 34  
Month to date heating degree days 712 748  
Since 1 July heating degree days 2468 2681  
Cooling Degree Days 0 0  
Month to date cooling degree days 0 0  
Year to date cooling degree days 0 0  
Moisture  
Dew Point 10 °F    
Average Humidity 61    
Maximum Humidity 84    
Minimum Humidity 38    
Precipitation  
Precipitation 0.00 in 0.02 in 0.03 in (2018)
Month to date precipitation 0.29 0.34  
Year to date precipitation 0.29 0.34  
Sea Level Pressure  
Sea Level Pressure 30.33 in    
Wind  
Wind Speed 7 mph (East)    
Max Wind Speed 16 mph    
Max Gust Speed 20 mph    
Visibility 10 miles    
Events      
T = Trace of Precipitation, MM = Missing Value Source: NWS Daily Summary

Daily Weather History Graph

Daily Weather History Graph

Search for Another Location

Airport or City:

Trip Planner

Search our weather history database for the weather conditions in past years. The results will help you decide how hot, cold, wet, or windy it might be!

Date:

Astronomy

Jan. 22, 2013 Rise Set
Actual Time 7:36 AM CST 5:36 PM CST
Civil Twilight 7:08 AM CST 6:04 PM CST
Nautical Twilight 6:36 AM CST 6:36 PM CST
Astronomical Twilight 6:04 AM CST 7:08 PM CST
Moon 2:00 PM CST 3:58 AM CST
Length of Visible Light 10h 56m
Length of Day
9h 59m
Waxing Gibbous, 83% of the Moon is Illuminated
Jan 22
Waxing Gibbous
Jan 26
Full
Feb 3
Last Quarter
Feb 10
New
Feb 17
First Quarter

Hourly Weather History & Observations

Time (CST) Temp. Windchill Dew Point Humidity Pressure Visibility Wind Dir Wind Speed Gust Speed Precip Events Conditions
12:53 AM 16.0 °F 7.4 °F 7.0 °F 68% 30.38 in 10.0 mi East 5.8 mph - N/A   Clear
1:53 AM 16.0 °F 6.3 °F 6.1 °F 65% 30.38 in 10.0 mi ENE 6.9 mph - N/A   Partly Cloudy
2:53 AM 16.0 °F 5.3 °F 7.0 °F 68% 30.39 in 10.0 mi NE 8.1 mph - N/A   Clear
3:53 AM 16.0 °F 4.4 °F 7.0 °F 68% 30.37 in 10.0 mi East 9.2 mph - N/A   Clear
4:53 AM 14.0 °F 3.9 °F 7.0 °F 74% 30.35 in 10.0 mi East 6.9 mph - N/A   Clear
5:53 AM 14.0 °F 5.1 °F 7.0 °F 74% 30.36 in 10.0 mi East 5.8 mph - N/A   Clear
6:53 AM 12.0 °F 5.9 °F 7.0 °F 80% 30.37 in 10.0 mi East 3.5 mph - N/A   Clear
7:53 AM 12.9 °F 1.6 °F 8.1 °F 81% 30.36 in 10.0 mi East 8.1 mph - N/A   Clear
8:53 AM 17.1 °F 4.3 °F 9.0 °F 71% 30.40 in 10.0 mi ENE 11.5 mph - N/A   Clear
9:53 AM 19.9 °F 7.3 °F 9.0 °F 62% 30.40 in 10.0 mi East 12.7 mph - N/A   Clear
10:53 AM 24.1 °F 12.5 °F 9.0 °F 53% 30.39 in 10.0 mi East 12.7 mph - N/A   Clear
11:53 AM 27.0 °F 15.6 °F 10.9 °F 51% 30.37 in 10.0 mi East 13.8 mph - N/A   Clear
12:53 PM 30.0 °F 21.7 °F 10.9 °F 45% 30.33 in 10.0 mi East 9.2 mph - N/A   Clear
1:53 PM 32.0 °F 23.0 °F 12.0 °F 44% 30.29 in 10.0 mi ESE 11.5 mph - N/A   Clear
2:53 PM 34.0 °F 28.0 °F 12.9 °F 42% 30.27 in 10.0 mi ESE 6.9 mph - N/A   Clear
3:53 PM 35.1 °F 31.0 °F 12.9 °F 40% 30.27 in 10.0 mi SE 4.6 mph - N/A   Clear
4:53 PM 35.1 °F 30.1 °F 14.0 °F 42% 30.27 in 10.0 mi ESE 5.8 mph - N/A   Clear
5:53 PM 30.9 °F 26.2 °F 12.9 °F 47% 30.28 in 10.0 mi East 4.6 mph - N/A   Clear
6:53 PM 24.1 °F 15.2 °F 12.9 °F 62% 30.28 in 10.0 mi ESE 8.1 mph - N/A   Clear
7:53 PM 24.1 °F 17.0 °F 12.9 °F 62% 30.29 in 10.0 mi East 5.8 mph - N/A   Clear
8:53 PM 24.1 °F 18.2 °F 12.9 °F 62% 30.31 in 10.0 mi ENE 4.6 mph - N/A   Clear
9:53 PM 23.0 °F 17.0 °F 12.9 °F 65% 30.30 in 10.0 mi ESE 4.6 mph - N/A   Clear
10:53 PM 23.0 °F - 12.9 °F 65% 30.31 in 10.0 mi Calm Calm - N/A   Clear
11:53 PM 21.9 °F - 12.9 °F 68% 30.30 in 10.0 mi Calm Calm - N/A   Clear